This is the latest recevied weather packets stored in our database for station/object K4CRS-13. If no packets are shown the sender has not sent any weather packets the latest 10 day(s).
| Time | Temp. | Humidity | Pressure | Rain* | Wind** | Luminosity | Snow |
|---|---|---|---|---|---|---|---|
| 1777301471 | 24.44° C | 70% | 1051.1 hPa | 0 mm | - | 564 W/m² | - |
| 1777301168 | 24.44° C | 70% | 1051.1 hPa | 0 mm | - | 550 W/m² | - |
| 1777300865 | 24.44° C | 70% | 1051 hPa | 0 mm | - | 535 W/m² | - |
| 1777300563 | 23.89° C | 71% | 1051 hPa | 0 mm | - | 520 W/m² | - |
| 1777300260 | 23.33° C | 71% | 1051.1 hPa | 0 mm | - | 511 W/m² | - |
| 1777299956 | 23.33° C | 71% | 1051 hPa | 0 mm | - | 488 W/m² | - |
| 1777299653 | 23.33° C | 71% | 1051.2 hPa | 0 mm | - | 476 W/m² | - |
| 1777299352 | 22.78° C | 72% | 1051 hPa | 0 mm | - | 460 W/m² | - |
| 1777299049 | 22.78° C | 72% | 1051.1 hPa | 0 mm | - | 441 W/m² | - |
| 1777298746 | 22.78° C | 74% | 1051.1 hPa | 0 mm | - | 423 W/m² | - |
| 1777298442 | 22.22° C | 74% | 1051.3 hPa | 0 mm | - | 412 W/m² | - |
| 1777298139 | 21.67° C | 74% | 1051.3 hPa | 0 mm | - | 395 W/m² | - |
| 1777297838 | 21.67° C | 75% | 1051.1 hPa | 0 mm | - | 369 W/m² | - |
| 1777297537 | 21.67° C | 76% | 1051.1 hPa | 0 mm | - | 360 W/m² | - |
| 1777297233 | 21.67° C | 77% | 1051 hPa | 0 mm | - | 345 W/m² | - |
| 1777296931 | 21.11° C | 78% | 1051 hPa | 0 mm | - | 333 W/m² | - |
| 1777296628 | 20° C | 79% | 1051 hPa | 0 mm | - | 326 W/m² | - |
| 1777296297 | 20.56° C | 78% | 1051 hPa | 0 mm | - | 136 W/m² | - |
| 1777295993 | 20.56° C | 78% | 1051.2 hPa | 0 mm | - | 203 W/m² | - |
| 1777295691 | 20° C | 80% | 1051 hPa | 0 mm | - | 269 W/m² | - |
| 1777295389 | 20° C | 79% | 1051 hPa | 0 mm | - | 222 W/m² | - |
| 1777295086 | 20° C | 80% | 1051.1 hPa | 0 mm | - | 214 W/m² | - |
| 1777294782 | 20° C | 82% | 1051 hPa | 0 mm | - | 206 W/m² | - |
| 1777294478 | 20° C | 84% | 1050.9 hPa | 0 mm | - | 177 W/m² | - |
| 1777294175 | 19.44° C | 86% | 1050.9 hPa | 0 mm | - | 154 W/m² | - |
* Rain latest hour (hover to see other rain measurements)
** Current wind speed in m/s (hover to see current wind gust speed)